| time (UTC) | temp C | wind direction | speed KPH | gust KPH | rain 1hr cm | rain 24hr cm | rain mn cm | humidity % | barometer mb |
| 20260503192003 | 17 | 208 | 3.2 | 11.3 | 0.00 | 0.00 | 0.00 | 59 | 1011.9 |
| 20260503191004 | 18 | 157 | 3.2 | 6.4 | 0.00 | 0.00 | 0.00 | 59 | 1011.9 |
| 20260503190003 | 17 | 216 | 1.6 | 8.0 | 0.00 | 0.00 | 0.00 | 60 | 1011.9 |
| 20260503185004 | 17 | 209 | 1.6 | 11.3 | 0.00 | 0.00 | 0.00 | 60 | 1011.9 |
| 20260503183003 | 17 | 199 | 1.6 | 11.3 | 0.00 | 0.00 | 0.00 | 62 | 1011.9 |
| 20260503182004 | 17 | 189 | 1.6 | 9.7 | 0.00 | 0.00 | 0.00 | 63 | 1012.0 |
| 20260503181004 | 17 | 223 | 3.2 | 9.7 | 0.00 | 0.00 | 0.00 | 64 | 1012.0 |
| 20260503180005 | 16 | 219 | 6.4 | 11.3 | 0.00 | 0.00 | 0.00 | 66 | 1012.1 |
| 20260503175004 | 15 | 205 | 8.0 | 11.3 | 0.00 | 0.00 | 0.00 | 71 | 1012.1 |
| 20260503174005 | 15 | 130 | 6.4 | 6.4 | 0.00 | 0.00 | 0.00 | 73 | 1012.1 |
| 20260503173003 | 15 | 205 | 4.8 | 8.0 | 0.00 | 0.00 | 0.00 | 73 | 1012.1 |
| 20260503172004 | 15 | 205 | 1.6 | 9.7 | 0.00 | 0.00 | 0.00 | 72 | 1012.0 |
| 20260503171004 | 15 | 168 | 1.6 | 6.4 | 0.00 | 0.00 | 0.00 | 72 | 1011.9 |
| 20260503151004 | 13 | 9 | 0.0 | 3.2 | 0.00 | 0.00 | 0.00 | 80 | 1011.5 |
| 20260503131005 | 12 | 198 | 0.0 | 0.0 | 0.00 | 0.00 | 0.00 | 80 | 1010.2 |
| 20260503081003 | 13 | 111 | 0.0 | 0.0 | 0.00 | 0.00 | 0.00 | 77 | 1010.7 |
| 20260503072004 | 13 | 89 | 0.0 | 0.0 | 0.00 | 0.00 | 0.00 | 75 | 1010.9 |
| 20260503055004 | 13 | 75 | 0.0 | 0.0 | 0.00 | 0.00 | 0.00 | 75 | 1011.1 |
| 20260503054005 | 14 | 75 | 0.0 | 0.0 | 0.00 | 0.00 | 0.00 | 75 | 1011.2 |
| 20260503053108 | 14 | 75 | 0.0 | 0.0 | 0.00 | 0.00 | 0.00 | 75 | 1011.2 |
| 20260503052004 | 14 | 75 | 0.0 | 0.0 | 0.00 | 0.00 | 0.00 | 75 | 1011.3 |
| 20260503051003 | 14 | 75 | 0.0 | 3.2 | 0.00 | 0.00 | 0.00 | 75 | 1011.4 |
| 20260503050005 | 14 | 71 | 0.0 | 4.8 | 0.00 | 0.00 | 0.00 | 74 | 1011.2 |
| 20260503045004 | 14 | 150 | 1.6 | 4.8 | 0.00 | 0.00 | 0.00 | 74 | 1011.2 |
| 20260503044004 | 14 | 173 | 0.0 | 1.6 | 0.00 | 0.00 | 0.00 | 74 | 1011.1 |
| 20260503043003 | 14 | 85 | 0.0 | 3.2 | 0.00 | 0.00 | 0.00 | 74 | 1011.0 |
| 20260503042004 | 14 | 66 | 1.6 | 4.8 | 0.00 | 0.00 | 0.00 | 74 | 1011.0 |
| 20260503041003 | 14 | 59 | 0.0 | 4.8 | 0.00 | 0.00 | 0.00 | 73 | 1010.9 |
| 20260503035003 | 14 | 14 | 1.6 | 8.0 | 0.00 | 0.00 | 0.00 | 73 | 1010.6 |
| 20260503034004 | 15 | 237 | 1.6 | 6.4 | 0.00 | 0.00 | 0.00 | 72 | 1010.5 |
| 20260503032004 | 15 | 253 | 1.6 | 6.4 | 0.00 | 0.00 | 0.00 | 71 | 1010.3 |
| 20260503031004 | 15 | 249 | 0.0 | 4.8 | 0.00 | 0.00 | 0.00 | 72 | 1010.3 |
| 20260503030004 | 15 | 211 | 6.4 | 6.4 | 0.00 | 0.00 | 0.00 | 72 | 1010.2 |
| 20260503025004 | 15 | 66 | 1.6 | 8.0 | 0.00 | 0.00 | 0.00 | 72 | 1010.0 |
| 20260503024003 | 16 | 317 | 1.6 | 8.0 | 0.00 | 0.00 | 0.00 | 71 | 1009.9 |
| 20260503023004 | 16 | 68 | 0.0 | 6.4 | 0.00 | 0.00 | 0.00 | 70 | 1009.8 |
| 20260503022003 | 16 | 142 | 3.2 | 8.0 | 0.00 | 0.00 | 0.00 | 69 | 1009.8 |
| 20260503021003 | 16 | 187 | 1.6 | 8.0 | 0.00 | 0.00 | 0.00 | 69 | 1009.8 |
| 20260503020005 | 17 | 258 | 1.6 | 4.8 | 0.00 | 0.00 | 0.00 | 69 | 1009.8 |
| 20260503015004 | 17 | 160 | 3.2 | 9.7 | 0.00 | 0.00 | 0.00 | 68 | 1009.7 |
| 20260503014004 | 17 | 234 | 1.6 | 8.0 | 0.00 | 0.00 | 0.00 | 67 | 1009.8 |
| 20260503013005 | 18 | 21 | 1.6 | 9.7 | 0.00 | 0.00 | 0.00 | 67 | 1009.8 |
| 20260503012004 | 18 | 360 | 0.0 | 9.7 | 0.00 | 0.00 | 0.00 | 66 | 1009.8 |
| 20260503011004 | 18 | 360 | 1.6 | 9.7 | 0.00 | 0.00 | 0.00 | 65 | 1009.8 |
| 20260503010005 | 19 | 360 | 8.0 | 8.0 | 0.00 | 0.00 | 0.00 | 64 | 1009.8 |
| 20260503003005 | 21 | 360 | 6.4 | 9.7 | 0.00 | 0.00 | 0.00 | 60 | 1009.7 |
| 20260503002004 | 21 | 203 | 3.2 | 11.3 | 0.00 | 0.00 | 0.00 | 58 | 1009.7 |
| 20260503001004 | 21 | 241 | 3.2 | 8.0 | 0.00 | 0.00 | 0.00 | 57 | 1009.8 |
| 20260503000004 | 22 | 153 | 6.4 | 14.5 | 0.00 | 0.00 | 0.00 | 57 | 1009.8 |
| 20260502235004 | 22 | 255 | 0.0 | 9.7 | 0.00 | 0.00 | 0.00 | 57 | 1009.8 |
| 20260502234004 | 22 | 76 | 1.6 | 8.0 | 0.00 | 0.00 | 0.00 | 56 | 1009.8 |
| 20260502233003 | 22 | 104 | 4.8 | 12.9 | 0.00 | 0.00 | 0.00 | 56 | 1009.9 |
| 20260502232005 | 23 | 266 | 9.7 | 14.5 | 0.00 | 0.00 | 0.00 | 55 | 1009.9 |
| 20260502231004 | 23 | 136 | 1.6 | 9.7 | 0.00 | 0.00 | 0.00 | 54 | 1010.0 |
| 20260502230004 | 23 | 227 | 1.6 | 11.3 | 0.00 | 0.00 | 0.00 | 53 | 1010.1 |
| 20260502225004 | 23 | 64 | 1.6 | 9.7 | 0.00 | 0.00 | 0.00 | 53 | 1010.2 |
| 20260502224004 | 23 | 181 | 1.6 | 9.7 | 0.00 | 0.00 | 0.00 | 55 | 1010.4 |
| 20260502223004 | 24 | 46 | 3.2 | 11.3 | 0.00 | 0.00 | 0.00 | 53 | 1010.4 |
| 20260502222005 | 25 | 209 | 1.6 | 11.3 | 0.00 | 0.00 | 0.00 | 53 | 1010.6 |
| 20260502221004 | 24 | 46 | 11.3 | 11.3 | 0.00 | 0.00 | 0.00 | 53 | 1010.7 |
| 20260502220004 | 23 | 182 | 1.6 | 9.7 | 0.00 | 0.00 | 0.00 | 55 | 1010.8 |
| 20260502215003 | 24 | 53 | 3.2 | 8.0 | 0.00 | 0.00 | 0.00 | 54 | 1010.9 |
| 20260502214004 | 24 | 165 | 1.6 | 6.4 | 0.00 | 0.00 | 0.00 | 53 | 1011.0 |
| 20260502213004 | 24 | 259 | 1.6 | 12.9 | 0.00 | 0.00 | 0.00 | 54 | 1011.1 |
| 20260502211005 | 23 | 256 | 3.2 | 4.8 | 0.00 | 0.00 | 0.00 | 54 | 1011.1 |
| 20260502210004 | 23 | 37 | 3.2 | 6.4 | 0.00 | 0.00 | 0.00 | 56 | 1011.4 |
| 20260502205004 | 22 | 100 | 3.2 | 6.4 | 0.00 | 0.00 | 0.00 | 57 | 1011.5 |
| 20260502204004 | 22 | 74 | 3.2 | 8.0 | 0.00 | 0.00 | 0.00 | 59 | 1011.7 |
| 20260502203004 | 22 | 169 | 1.6 | 6.4 | 0.00 | 0.00 | 0.00 | 59 | 1011.8 |
| 20260502201004 | 21 | 42 | 4.8 | 8.0 | 0.00 | 0.00 | 0.00 | 62 | 1012.0 |
| 20260502200004 | 21 | 68 | 3.2 | 6.4 | 0.00 | 0.00 | 0.00 | 65 | 1012.2 |
| 20260502194004 | 19 | 35 | 3.2 | 6.4 | 0.00 | 0.00 | 0.00 | 68 | 1012.4 |